Weather History for Ellensburg, WA

Change the Weather History Date:

Sunday, June 16, 2013

  Actual Average (KYKM) Record (KYKM)
Temperature  
Mean Temperature 70 °F 64 °F  
Max Temperature 90 °F 79 °F 103 °F (1961)
Min Temperature 51 °F 48 °F 35 °F (1954)
Degree Days  
Heating Degree Days 0 3  
Month to date heating degree days 65  
Since 1 June heating degree days 65  
Since 1 July heating degree days 6009  
Cooling Degree Days 5 2  
Month to date cooling degree days 22  
Year to date cooling degree days 42  
Since 1 June cooling degree days 22  
Growing Degree Days 20 (Base 50)    
Moisture  
Dew Point 45 °F    
Average Humidity 45    
Maximum Humidity 74    
Minimum Humidity 15    
Precipitation  
Precipitation 0.01 in 0.02 in 0.71 in (1947)
Month to date precipitation 0.37  
Year to date precipitation 4.04  
Snow  
Snow 0.00 in 0.00 in 0.00 in (2002)
Month to date snowfall 0.0  
Year to date snowfall 8.6  
Since 1 July snowfall 21.6  
Snow Depth -    
Sea Level Pressure  
Sea Level Pressure 29.96 in    
Wind  
Wind Speed 8 mph (NW)    
Max Wind Speed 28 mph    
Max Gust Speed 37 mph    
Visibility 10 miles    
Events Rain    
T = Trace of Precipitation, MM = Missing Value Source: NWS Daily Summary

Daily Weather History Graph

Daily Weather History Graph

Search for Another Location

Airport:

Trip Planner

Search our weather history database for the weather conditions in past years. The results will help you decide how hot, cold, wet, or windy it might be!

Date:

Astronomy

Jun. 16, 2013 Rise Set
Actual Time 5:06 AM PDT 8:59 PM PDT
Civil Twilight 4:26 AM PDT 9:39 PM PDT
Nautical Twilight 3:31 AM PDT 10:34 PM PDT
Astronomical Twilight 2:09 AM PDT 11:56 PM PDT
Moon 1:16 PM PDT (6/16) 12:40 AM PDT (6/16)
Length of Visible Light 17h 13m
Length of Day
15h 53m
Waxing Crescent, 51% of the Moon is Illuminated
Jun 16
Waxing Crescent
Jun 23
Full
Jun 29
Last Quarter
Jul 8
New
Jul 15
First Quarter

Hourly Weather History & Observations

Time (PDT) Temp. Dew Point Humidity Pressure Visibility Wind Dir Wind Speed Gust Speed Precip Events Conditions
12:53 AM 64.9 °F 43.0 °F 45% 29.94 in 10.0 mi West 8.1 mph - N/A   Clear
1:53 AM 60.1 °F 46.9 °F 62% 29.95 in 10.0 mi NW 8.1 mph - N/A   Clear
2:53 AM 55.9 °F 45.0 °F 67% 29.96 in 10.0 mi Variable 3.5 mph - N/A   Clear
3:53 AM 51.1 °F 42.1 °F 71% 29.97 in 10.0 mi ENE 3.5 mph - N/A   Clear
4:53 AM 54.0 °F 44.1 °F 69% 29.97 in 10.0 mi East 4.6 mph - N/A   Clear
5:53 AM 53.1 °F 45.0 °F 74% 29.99 in 10.0 mi East 4.6 mph - N/A   Clear
6:53 AM 61.0 °F 46.9 °F 60% 29.99 in 10.0 mi East 4.6 mph - N/A   Clear
7:53 AM 61.0 °F 48.0 °F 62% 30.00 in 10.0 mi SW 4.6 mph - N/A   Clear
8:53 AM 66.9 °F 46.9 °F 49% 30.00 in 10.0 mi ESE 4.6 mph - N/A   Scattered Clouds
9:53 AM 75.0 °F 48.0 °F 38% 29.99 in 10.0 mi Calm Calm - N/A   Clear
10:53 AM 79.0 °F 48.0 °F 34% 29.99 in 10.0 mi Calm Calm - N/A   Clear
11:53 AM 84.0 °F 43.0 °F 24% 29.98 in 10.0 mi Variable 3.5 mph - N/A   Clear
12:53 PM 87.1 °F 43.0 °F 21% 29.96 in 10.0 mi Variable 3.5 mph - N/A   Clear
1:53 PM 89.1 °F 35.1 °F 15% 29.94 in 10.0 mi South 8.1 mph - N/A   Clear
2:53 PM 89.1 °F 36.0 °F 15% 29.93 in 10.0 mi SSE 8.1 mph - N/A   Clear
3:53 PM 89.1 °F 37.0 °F 16% 29.92 in 10.0 mi South 6.9 mph - N/A   Clear
4:53 PM 84.0 °F 35.1 °F 17% 29.91 in 10.0 mi SE 4.6 mph - N/A   Clear
5:53 PM 86.0 °F 35.1 °F 16% 29.91 in 10.0 mi Calm Calm - N/A   Clear
6:53 PM 77.0 °F 52.0 °F 42% 29.92 in 10.0 mi NW 23.0 mph 28.8 mph N/A   Clear
7:53 PM 70.0 °F 51.1 °F 51% 29.95 in 10.0 mi NW 27.6 mph 36.8 mph N/A   Partly Cloudy
8:53 PM 68.0 °F 51.1 °F 55% 29.96 in 10.0 mi NW 23.0 mph 32.2 mph N/A   Clear
9:53 PM 68.0 °F 50.0 °F 52% 29.99 in 10.0 mi WNW 21.9 mph 28.8 mph N/A   Partly Cloudy
10:53 PM 66.9 °F 50.0 °F 54% 29.97 in 10.0 mi NW 21.9 mph 28.8 mph N/A   Mostly Cloudy
11:53 PM 63.0 °F 53.1 °F 70% 29.98 in 8.0 mi NNW 20.7 mph 26.5 mph 0.01 in Rain Rain